Weather History for Bloomington, IN

Change the Weather History Date:

Sunday, June 3, 2012

  Actual Average Record
Temperature  
Mean Temperature 67 °F 68 °F  
Max Temperature 81 °F 80 °F 90 °F (2002)
Min Temperature 52 °F 57 °F 48 °F (2001)
Degree Days  
Heating Degree Days 0 1  
Month to date heating degree days 14 5  
Since 1 June heating degree days 14 5  
Since 1 July heating degree days 4150 5256  
Cooling Degree Days 2 5  
Month to date cooling degree days 2 14  
Year to date cooling degree days 203 96  
Since 1 June cooling degree days 2 14  
Growing Degree Days 16 (Base 50)    
Moisture  
Dew Point 53 °F    
Average Humidity 67    
Maximum Humidity 96    
Minimum Humidity 37    
Precipitation  
Precipitation 0.00 in 0.17 in 1.32 in (2008)
Month to date precipitation 0.04 0.52  
Year to date precipitation 11.79 20.41  
Sea Level Pressure  
Sea Level Pressure 29.86 in    
Wind  
Wind Speed 4 mph (West)    
Max Wind Speed 16 mph    
Max Gust Speed 22 mph    
Visibility 10 miles    
Events      
T = Trace of Precipitation, MM = Missing Value Source: NWS Daily Summary

Daily Weather History Graph

Daily Weather History Graph

Search for Another Location

Airport:

Trip Planner

Search our weather history database for the weather conditions in past years. The results will help you decide how hot, cold, wet, or windy it might be!

Date:

Astronomy

Jun. 03, 2012 Rise Set
Actual Time 6:21 AM EDT 9:08 PM EDT
Civil Twilight 5:49 AM EDT 9:40 PM EDT
Nautical Twilight 5:09 AM EDT 10:20 PM EDT
Astronomical Twilight 4:24 AM EDT 11:05 PM EDT
Moon 8:33 PM EDT (6/3) 5:29 AM EDT (6/3)
Length of Visible Light 15h 50m
Length of Day
14h 47m
Waxing Gibbous, 99% of the Moon is Illuminated
Jun 3
Waxing Gibbous
Jun 4
Full
Jun 11
Last Quarter
Jun 19
New
Jun 26
First Quarter

Hourly Weather History & Observations

Time (EDT) Temp. Dew Point Humidity Pressure Visibility Wind Dir Wind Speed Gust Speed Precip Events Conditions
12:53 AM 55.0 °F 52.0 °F 89% 29.86 in 10.0 mi SW 4.6 mph - N/A   Clear
1:53 AM 55.0 °F 52.0 °F 89% 29.85 in 10.0 mi WSW 5.8 mph - N/A   Clear
2:53 AM 55.0 °F 52.0 °F 89% 29.84 in 10.0 mi WSW 3.5 mph - N/A   Clear
3:53 AM 54.0 °F 52.0 °F 93% 29.85 in 10.0 mi SW 3.5 mph - N/A   Clear
4:53 AM 52.0 °F 50.0 °F 93% 29.85 in 10.0 mi Calm Calm - N/A   Clear
5:53 AM 54.0 °F 51.1 °F 90% 29.85 in 10.0 mi SW 3.5 mph - N/A   Clear
6:53 AM 54.0 °F 51.1 °F 90% 29.86 in 10.0 mi Calm Calm - N/A   Clear
7:53 AM 59.0 °F 55.0 °F 87% 29.88 in 10.0 mi Calm Calm - N/A   Clear
8:53 AM 63.0 °F 55.9 °F 78% 29.88 in 10.0 mi Calm Calm - N/A   Clear
9:53 AM 66.9 °F 57.0 °F 70% 29.91 in 10.0 mi West 5.8 mph - N/A   Clear
10:53 AM 72.0 °F 55.0 °F 55% 29.89 in 10.0 mi WNW 6.9 mph - N/A   Clear
11:53 AM 73.9 °F 53.1 °F 48% 29.89 in 10.0 mi WNW 8.1 mph 16.1 mph N/A   Clear
12:53 PM 75.9 °F 53.1 °F 45% 29.89 in 10.0 mi WNW 10.4 mph 16.1 mph N/A   Partly Cloudy
1:53 PM 78.1 °F 52.0 °F 40% 29.88 in 10.0 mi WNW 10.4 mph - N/A   Partly Cloudy
2:53 PM 79.0 °F 52.0 °F 39% 29.87 in 10.0 mi NW 9.2 mph 16.1 mph N/A   Clear
3:53 PM 79.0 °F 51.1 °F 38% 29.85 in 10.0 mi NW 8.1 mph - N/A   Scattered Clouds
4:53 PM 79.0 °F 51.1 °F 38% 29.83 in 10.0 mi North 6.9 mph - N/A   Partly Cloudy
5:53 PM 78.1 °F 50.0 °F 37% 29.83 in 10.0 mi WNW 5.8 mph - N/A   Clear
6:53 PM 78.1 °F 51.1 °F 39% 29.82 in 10.0 mi West 6.9 mph - N/A   Clear
7:53 PM 75.0 °F 51.1 °F 43% 29.84 in 10.0 mi WNW 3.5 mph - N/A   Clear
8:53 PM 68.0 °F 57.0 °F 68% 29.84 in 10.0 mi WSW 3.5 mph - N/A   Clear
9:53 PM 64.0 °F 55.9 °F 75% 29.85 in 10.0 mi Calm Calm - N/A   Clear
10:53 PM 63.0 °F 57.0 °F 81% 29.84 in 10.0 mi Calm Calm - N/A   Mostly Cloudy
11:53 PM 64.0 °F 57.0 °F 78% 29.85 in 10.0 mi Calm Calm - N/A   Scattered Clouds